{"data":{"norad_id":40082,"intl_designator":"2014-038D","name":"O3B FM8","alt_names":[],"object_type":"PAYLOAD","status":"ACTIVE","operator":null,"country":"O3B","launch_date":"2014-07-10","launch_site_code":"FRGUI","launch_vehicle":null,"mission":null,"orbit_class":"UNKNOWN","rcs_meters":3.9905,"size_class":null,"mass_kg":null,"dimensions":null,"purposes":["comms"],"wikipedia_slug":null,"has_3d_model":false,"image_url":null,"decayed_at":null,"tle_current":{"epoch":"2026-09-19T11:31:46.277472Z","epoch_age_seconds":102574,"freshness":"FRESH","line1":"1 40082U 14038D   26262.48039673 -.00000027  00000+0  00000+0 0  9996","line2":"2 40082   0.0449 352.5255 0002761 185.7952 181.6824  5.00116204222660","mean_motion":5.00116204,"eccentricity":0.0002761,"inclination_deg":0.0449,"raan_deg":352.5255,"arg_perigee_deg":185.7952,"mean_anomaly_deg":181.6824,"bstar":0,"rev_number":22266,"period_min":287.93308204827,"perigee_km":8061.8886711359,"apogee_km":8069.8646554808,"semimajor_km":14444.013663308,"source":"CELESTRAK","updated_at":"2026-09-20T09:00:35.683115Z"}}}